Weather History for Marianna, FL

Change the Weather History Date:

Tuesday, July 23, 2013

  Actual Average Record
Temperature  
Mean Temperature 80 °F 82 °F  
Max Temperature 90 °F 92 °F 100 °F (2010)
Min Temperature 70 °F 73 °F 70 °F (2003)
Degree Days  
Heating Degree Days 0    
Month to date heating degree days 0  
Since 1 June heating degree days 0  
Since 1 July heating degree days 0  
Cooling Degree Days 15    
Month to date cooling degree days 331  
Year to date cooling degree days 1216  
Since 1 June cooling degree days 780  
Growing Degree Days 30 (Base 50)    
Moisture  
Dew Point 73 °F    
Average Humidity 82    
Maximum Humidity 100    
Minimum Humidity 64    
Precipitation  
Precipitation 1.23 in 0.15 in 1.23 in (2013)
Month to date precipitation 10.37 3.93  
Year to date precipitation 35.37 31.72  
Sea Level Pressure  
Sea Level Pressure 29.98 in    
Wind  
Wind Speed 5 mph (SW)    
Max Wind Speed 43 mph    
Max Gust Speed 56 mph    
Visibility 8 miles    
Events Rain , Thunderstorm    
T = Trace of Precipitation, MM = Missing Value Source: NWS Daily Summary

Daily Weather History Graph

Daily Weather History Graph

Search for Another Location

Airport:

Trip Planner

Search our weather history database for the weather conditions in past years. The results will help you decide how hot, cold, wet, or windy it might be!

Date:

Astronomy

Jul. 23, 2013 Rise Set
Actual Time 5:52 AM CDT 7:41 PM CDT
Civil Twilight 5:26 AM CDT 8:07 PM CDT
Nautical Twilight 4:53 AM CDT 8:40 PM CDT
Astronomical Twilight 4:19 AM CDT 9:14 PM CDT
Moon 8:19 PM CDT (7/23) 6:52 AM CDT (7/23)
Length of Visible Light 14h 41m
Length of Day
13h 48m
Full, 99% of the Moon is Illuminated
Jul 23
Full
Jul 29
Last Quarter
Aug 6
New
Aug 14
First Quarter
Aug 20
Full

Hourly Weather History & Observations

Time (CDT) Temp. Heat Index Dew Point Humidity Pressure Visibility Wind Dir Wind Speed Gust Speed Precip Events Conditions
12:09 AM 73.4 °F - 71.6 °F 94% 30.01 in 10.0 mi WSW 8.1 mph - N/A   Mostly Cloudy
12:17 AM 73.4 °F - 71.6 °F 94% 30.01 in 10.0 mi SW 5.8 mph - N/A   Scattered Clouds
12:53 AM 73.0 °F - 71.1 °F 93% 30.01 in 10.0 mi SSW 4.6 mph - N/A   Clear
1:07 AM 73.4 °F - 71.6 °F 94% 30.00 in 10.0 mi SSW 5.8 mph - N/A   Partly Cloudy
1:53 AM 73.0 °F - 71.1 °F 93% 30.00 in 10.0 mi SW 6.9 mph - N/A   Scattered Clouds
2:11 AM 73.4 °F - 71.6 °F 94% 30.00 in 10.0 mi SSW 4.6 mph - N/A   Mostly Cloudy
2:53 AM 73.0 °F - 71.1 °F 93% 30.01 in 10.0 mi SSW 3.5 mph - N/A   Mostly Cloudy
3:09 AM 71.6 °F - 71.6 °F 100% 30.01 in 10.0 mi SSW 3.5 mph - N/A   Scattered Clouds
3:53 AM 73.0 °F - 71.1 °F 93% 30.02 in 10.0 mi Calm Calm - N/A   Partly Cloudy
4:09 AM 73.4 °F - 71.6 °F 94% 30.02 in 10.0 mi Calm Calm - N/A   Mostly Cloudy
4:53 AM 73.0 °F - 72.0 °F 96% 30.03 in 10.0 mi Calm Calm - N/A   Overcast
5:53 AM 73.0 °F - 72.0 °F 96% 30.03 in 10.0 mi SSW 4.6 mph - N/A   Overcast
6:10 AM 73.4 °F - 71.6 °F 94% 30.04 in 2.5 mi SSW 4.6 mph - 0.03 in Rain Light Rain
6:13 AM 73.4 °F - 71.6 °F 94% 30.04 in 6.0 mi SSW 3.5 mph - 0.03 in Rain , Thunderstorm Light Rain
6:34 AM 73.4 °F - 73.4 °F 100% 30.04 in 3.0 mi North 3.5 mph - 0.06 in Rain Rain
6:41 AM 73.4 °F - 73.4 °F 100% 30.03 in 2.0 mi Calm Calm - 0.07 in Rain Light Rain
6:44 AM 73.4 °F - 73.4 °F 100% 30.03 in 4.0 mi NNW 6.9 mph - 0.07 in Rain Light Rain
6:53 AM 73.0 °F - 73.0 °F 100% 30.03 in 10.0 mi SW 3.5 mph - 0.07 in Thunderstorm Overcast
7:24 AM 73.4 °F - 73.4 °F 100% 30.03 in 10.0 mi Calm Calm - 0.00 in   Overcast
7:53 AM 75.0 °F - 73.9 °F 96% 30.03 in 10.0 mi WSW 3.5 mph - 0.00 in   Overcast
8:01 AM 75.2 °F - 73.4 °F 94% 30.03 in 10.0 mi SW 5.8 mph - N/A   Mostly Cloudy
8:19 AM 78.8 °F - 75.2 °F 89% 30.03 in 10.0 mi WSW 9.2 mph - N/A   Scattered Clouds
8:53 AM 81.0 °F 87.9 °F 77.0 °F 88% 30.02 in 10.0 mi West 11.5 mph - N/A   Scattered Clouds
9:53 AM 84.0 °F 91.9 °F 75.0 °F 74% 30.03 in 10.0 mi West 13.8 mph - N/A   Scattered Clouds
10:53 AM 86.0 °F 95.1 °F 75.0 °F 70% 30.02 in 10.0 mi West 10.4 mph - N/A   Partly Cloudy
11:53 AM 88.0 °F 97.5 °F 75.0 °F 65% 30.01 in 10.0 mi West 9.2 mph - N/A   Mostly Cloudy
12:53 PM 89.1 °F 99.1 °F 75.0 °F 63% 29.98 in 10.0 mi WNW 8.1 mph - 0.00 in   Mostly Cloudy
1:48 PM 87.8 °F 97.6 °F 75.2 °F 66% 29.96 in 10.0 mi WSW 8.1 mph - N/A Thunderstorm Partly Cloudy
1:53 PM 88.0 °F 97.5 °F 75.0 °F 65% 29.96 in 10.0 mi WSW 8.1 mph - N/A Thunderstorm Partly Cloudy
2:10 PM 87.8 °F 97.6 °F 75.2 °F 66% 29.94 in 10.0 mi West 9.2 mph - 0.00 in Rain Light Rain
2:53 PM 87.1 °F 95.4 °F 73.9 °F 65% 29.94 in 10.0 mi SW 6.9 mph - 0.00 in   Mostly Cloudy
2:58 PM 84.2 °F 92.3 °F 75.2 °F 74% 29.94 in 2.5 mi SSW 11.5 mph - 0.06 in Rain , Thunderstorm Thunderstorms and Rain
3:05 PM 80.6 °F 87.1 °F 77.0 °F 89% 29.93 in 0.8 mi ESE 6.9 mph - 0.22 in Rain , Thunderstorm Heavy Thunderstorms and Rain
3:11 PM 80.6 °F 86.2 °F 75.2 °F 84% 29.93 in 2.0 mi SSE 4.6 mph - 0.22 in Rain , Thunderstorm Light Thunderstorms and Rain
3:18 PM 82.4 °F 89.5 °F 75.2 °F 79% 29.92 in 10.0 mi SSW 15.0 mph 20.7 mph 0.22 in Thunderstorm Thunderstorm
3:28 PM 80.6 °F 86.2 °F 75.2 °F 84% 29.93 in 1.8 mi SW 16.1 mph 27.6 mph 0.31 in Rain , Thunderstorm Heavy Thunderstorms and Rain
3:32 PM 78.8 °F - 73.4 °F 83% 29.92 in 0.8 mi SSW 6.9 mph 27.6 mph 0.40 in Rain , Thunderstorm Heavy Thunderstorms and Rain
3:40 PM 78.8 °F - 73.4 °F 83% 29.93 in 2.5 mi Calm Calm - 0.40 in Rain , Thunderstorm Light Thunderstorms and Rain
3:53 PM 81.0 °F 87.9 °F 77.0 °F 88% 29.92 in 10.0 mi Calm Calm - 0.40 in Thunderstorm Thunderstorm
4:53 PM 75.9 °F - 73.0 °F 91% 29.92 in 10.0 mi Variable 3.5 mph - 0.01 in Rain , Thunderstorm Light Rain
5:22 PM 77.0 °F - 73.4 °F 89% 29.91 in 10.0 mi South 4.6 mph - 0.00 in   Mostly Cloudy
5:44 PM 78.8 °F - 73.4 °F 83% 29.92 in 10.0 mi SE 3.5 mph - 0.00 in Thunderstorm Mostly Cloudy
5:53 PM 78.1 °F - 73.9 °F 87% 29.92 in 10.0 mi SE 4.6 mph - 0.00 in Thunderstorm Thunderstorm
6:29 PM 75.2 °F - 73.4 °F 94% 29.97 in 0.8 mi NNW 36.8 mph 56.4 mph 0.31 in Rain , Thunderstorm Heavy Thunderstorms and Rain
6:39 PM 71.6 °F - 69.8 °F 94% 29.99 in 1.0 mi NNW 16.1 mph 31.1 mph 0.52 in Rain , Thunderstorm Heavy Thunderstorms and Rain
6:43 PM 71.6 °F - 69.8 °F 94% 30.00 in 1.8 mi NW 16.1 mph 31.1 mph 0.53 in Rain , Thunderstorm Heavy Thunderstorms and Rain
6:46 PM 71.6 °F - 69.8 °F 94% 30.00 in 3.0 mi NW 16.1 mph 27.6 mph 0.54 in Rain , Thunderstorm Thunderstorms and Rain
6:53 PM 71.1 °F - 70.0 °F 96% 30.00 in 4.0 mi NNW 11.5 mph 20.7 mph 0.57 in Rain , Thunderstorm Heavy Thunderstorms and Rain
7:40 PM 71.6 °F - 69.8 °F 94% 29.95 in 10.0 mi SW 3.5 mph - 0.15 in Rain Light Rain
7:53 PM 72.0 °F - 71.1 °F 97% 29.94 in 10.0 mi SSW 5.8 mph - 0.16 in Rain Light Rain
8:53 PM 72.0 °F - 71.1 °F 97% 29.95 in 10.0 mi SSW 3.5 mph - 0.02 in   Scattered Clouds
9:17 PM 71.6 °F - 71.6 °F 100% 29.96 in 10.0 mi SW 5.8 mph - N/A   Mostly Cloudy
9:53 PM 72.0 °F - 70.0 °F 93% 29.95 in 10.0 mi WSW 5.8 mph - N/A   Mostly Cloudy
10:05 PM 71.6 °F - 69.8 °F 94% 29.94 in 10.0 mi Calm Calm - N/A   Scattered Clouds
10:53 PM 71.1 °F - 70.0 °F 96% 29.94 in 10.0 mi SW 5.8 mph - N/A   Clear
11:53 PM 70.0 °F - 69.1 °F 97% 29.94 in 10.0 mi West 3.5 mph - N/A   Scattered Clouds